Tracking 30692 objects as of 16-Jun-2025
HD Live streaming from Space Station
objects crossing your sky now

STARLINK-1740

Track STARLINK-1740 now!
10-day predictions
STARLINK-1740 is classified as:


NORAD ID: 46566
Int'l Code: 2020-070AL
Perigee: 553.4 km
Apogee: 555.3 km
Inclination: 53.1 °
Period: 95.6 minutes
Semi major axis: 6925 km
RCS: Unknown
Launch date: October 6, 2020
Source: United States (US)
Launch site: AIR FORCE EASTERN TEST RANGE (AFETR)
Your satellite tracking list
Your tracking list is empty




NASA's NSSDC Master Catalog

Two Line Element Set (TLE):
1 46566U 20070AL  25167.57184929  .00005387  00000-0  38025-3 0  9996
2 46566  53.0541 271.2677 0001397  90.5216 269.5933 15.06401572259679
Source of the keplerian elements: AFSPC